Home > Time Zones > World Clock > Weather > Japan > Tokyo > Past weeks

Flag for Japan Weather past 2 weeks in Tokyo, Japan

Now
66 °F

Clear.


Feels Like: 66 °F
Forecast: 57 / 78 °F
Wind: 6 mph from South

Location: Tokyo

Current Time: Apr 27, 2015 at 9:53:07 PM

Latest Report: Apr 27, 2015 at 9:00 PM


Visibility: 6 mi

Pressure: 30.04 "Hg

Humidity: 71%

Dew point: 56 °F

Location of TokyoLocation

Historic Weather in Tokyo — Graph

°F

Tokyo temperature yesterday

Maximum temperature yesterday: 74 °F (at 2:00 PM)
Minimum temperature yesterday: 55 °F (at 5:00 AM)
Average temperature yesterday: 64 °F

Past Weeks' High & Low Weather Summary

 TemperatureHumidityPressure
High75 °F (Apr 27, 3:00 PM)99% (Apr 15, 2:00 AM)30.46 "Hg (Apr 15, 2:00 AM)
Low45 °F (Apr 18, 4:00 AM)29% (Apr 25, 7:00 PM)29.47 "Hg (Apr 15, 5:00 PM)
Average60 °F69%29.97 "Hg
* Reported Apr 12 8:00 PM — Apr 27 8:00 PM, Tokyo, Weather by CustomWeather, © 2015

Note: Actual official high and low records may vary slightly from our data, if they occured in-between our weather recording intervals... More about our weather records

Advertising

Tokyo weather history for previous 24 hours

 ConditionsComfort  
Time TempWeatherWind HumidityBarometerVisibility
8:00 PM
Mon, Apr 27
66 °FMild.6 mph73%30.03 "HgN/A
7:00 PM68 °FMild.5 mph69%30.01 "HgN/A
6:00 PM70 °FClear.8 mph69%29.99 "Hg6 mi
5:00 PM71 °FMild.9 mph64%29.99 "HgN/A
4:00 PM74 °FMild.10 mph56%29.98 "HgN/A
3:00 PM75 °FSunny.13 mph53%29.99 "Hg6 mi
2:00 PM75 °FMild.13 mph53%30.01 "HgN/A
1:00 PM75 °FMild.13 mph54%30.02 "HgN/A
12:00 PM73 °FSunny.9 mph54%30.05 "Hg6 mi
11:00 AM74 °FMild.9 mph51%30.07 "HgN/A
10:00 AM72 °FMild.7 mph47%30.09 "HgN/A
9:00 AM71 °FSunny.2 mph52%30.09 "Hg6 mi
8:00 AM66 °FMild.3 mph61%30.11 "HgN/A
7:00 AM62 °FMild.5 mph70%30.11 "HgN/A
6:00 AM59 °FSunny.3 mph78%30.10 "Hg6 mi
5:00 AM56 °FCool.5 mph91%30.09 "HgN/A
4:00 AM57 °FCool.3 mph90%30.08 "HgN/A
3:00 AM59 °FClear.6 mph86%30.08 "Hg9 mi
2:00 AM58 °FCool.2 mph84%30.08 "HgN/A
1:00 AM60 °FCool.5 mph80%30.09 "HgN/A
12:00 AM61 °FCool.7 mph74%30.09 "HgN/A
11:00 PM
Sun, Apr 26
62 °FCool.8 mph71%30.10 "HgN/A
10:00 PM62 °FMild.6 mph71%30.09 "HgN/A
9:00 PM63 °FClear.7 mph65%30.09 "Hg12 mi
Weather by CustomWeather, © 2015

See weather overviewHow to use our weather pages